EJA510 LOWL-LKPR

Flight info

Callsign EJA510
Flight time 0h 31m
Altitude 25000
Route LIDSI DCT TIVAP/N0457F240 DCT BUDEX DCT APRAQ
Aircraft C700/M-SBDGHM1RWXY/LB2

Departure

Time 2026-04-16 13:59
Airport Linz-Hörsching Airport (LOWL)

Arrival

Time 2026-04-16 14:31
Airport Václav Havel Airport Prague (LKPR)
Time Latitude Longitude Altitude Speed Heading
2026-04-16 13:40 48.23837 14.19014 980 ft 0 kts 87°
2026-04-16 13:49 48.23837 14.19015 980 ft 2 kts 87°
2026-04-16 13:50 48.23822 14.19077 987 ft 8 kts 173°
2026-04-16 13:50 48.23758 14.19097 984 ft 11 kts 131°
2026-04-16 13:50 48.23756 14.19221 980 ft 14 kts 87°
2026-04-16 13:50 48.23763 14.19379 980 ft 17 kts 86°
2026-04-16 13:51 48.23768 14.19553 980 ft 15 kts 89°
2026-04-16 13:51 48.23684 14.19636 985 ft 17 kts 159°
2026-04-16 13:51 48.23562 14.19708 980 ft 19 kts 158°
2026-04-16 13:51 48.23518 14.19733 986 ft 0 kts 159°
2026-04-16 13:56 48.23517 14.19734 980 ft 2 kts 159°
2026-04-16 13:56 48.23489 14.19750 982 ft 7 kts 160°
2026-04-16 13:56 48.23425 14.19786 979 ft 14 kts 159°
2026-04-16 13:57 48.23347 14.19905 982 ft 19 kts 86°
2026-04-16 13:57 48.23370 14.20116 978 ft 22 kts 87°
2026-04-16 13:57 48.23379 14.20341 975 ft 21 kts 87°
2026-04-16 13:58 48.23382 14.20681 977 ft 3 kts 348°
2026-04-16 13:58 48.23387 14.20627 975 ft 0 kts 266°
2026-04-16 13:58 48.23385 14.20571 975 ft 32 kts 269°
2026-04-16 13:58 48.23358 14.19732 990 ft 125 kts 271°
2026-04-16 13:59 48.23309 14.18109 1452 ft 181 kts 267°
2026-04-16 13:59 48.23234 14.16005 2461 ft 217 kts 269°
2026-04-16 13:59 48.23148 14.13577 3693 ft 250 kts 267°
2026-04-16 13:59 48.23087 14.10882 5049 ft 259 kts 275°
2026-04-16 14:00 48.23492 14.08329 6292 ft 253 kts 289°
2026-04-16 14:00 48.24239 14.05938 7489 ft 254 kts 301°
2026-04-16 14:00 48.25332 14.03853 8707 ft 254 kts 314°
2026-04-16 14:00 48.26708 14.02183 9930 ft 258 kts 327°
2026-04-16 14:01 48.28421 14.00935 10804 ft 295 kts 340°
2026-04-16 14:01 48.30592 14.00331 11579 ft 340 kts 355°
2026-04-16 14:01 48.33014 14.00757 12449 ft 358 kts 13°
2026-04-16 14:01 48.35296 14.02331 13347 ft 364 kts 30°
2026-04-16 14:02 48.37420 14.04422 14268 ft 366 kts 31°
2026-04-16 14:02 48.39601 14.06583 15142 ft 388 kts 31°
2026-04-16 14:02 48.41937 14.08866 16126 ft 405 kts 30°
2026-04-16 14:02 48.44231 14.11112 17108 ft 385 kts 30°
2026-04-16 14:03 48.46499 14.13337 18080 ft 397 kts 30°
2026-04-16 14:03 48.48861 14.15642 19025 ft 408 kts 30°
2026-04-16 14:03 48.51259 14.17999 19946 ft 416 kts 30°
2026-04-16 14:03 48.53710 14.20418 20922 ft 423 kts 30°
2026-04-16 14:04 48.56190 14.22858 21961 ft 428 kts 30°
2026-04-16 14:04 48.58702 14.25330 23023 ft 433 kts 30°
2026-04-16 14:04 48.61237 14.27832 24078 ft 437 kts 29°
2026-04-16 14:04 48.63762 14.30329 24909 ft 444 kts 29°
2026-04-16 14:05 48.66427 14.32949 24997 ft 468 kts 29°
2026-04-16 14:05 48.69298 14.35184 24990 ft 448 kts 19°
2026-04-16 14:05 48.72250 14.36684 24991 ft 455 kts 11°
2026-04-16 14:05 48.75368 14.37528 24989 ft 454 kts
2026-04-16 14:06 48.78478 14.37667 24984 ft 448 kts 354°
2026-04-16 14:06 48.81579 14.37120 24984 ft 442 kts 346°
2026-04-16 14:06 48.84604 14.36299 24984 ft 441 kts 347°
2026-04-16 14:06 48.87630 14.35515 24989 ft 440 kts 347°
2026-04-16 14:07 48.90637 14.34727 24990 ft 439 kts 346°
2026-04-16 14:07 48.93611 14.33925 24990 ft 440 kts 346°
2026-04-16 14:07 48.96621 14.33066 24989 ft 440 kts 345°
2026-04-16 14:07 48.99624 14.32150 24993 ft 440 kts 345°
2026-04-16 14:08 49.02633 14.31250 24996 ft 440 kts 345°
2026-04-16 14:08 49.04669 14.30643 24998 ft 441 kts 345°
2026-04-16 14:08 49.07673 14.29736 24995 ft 441 kts 345°
2026-04-16 14:08 49.10644 14.28833 24993 ft 441 kts 345°
2026-04-16 14:09 49.13657 14.27921 24993 ft 441 kts 345°
2026-04-16 14:09 49.16667 14.27010 24989 ft 441 kts 345°
2026-04-16 14:09 49.19676 14.26097 24992 ft 441 kts 345°
2026-04-16 14:09 49.22689 14.25180 24990 ft 441 kts 345°
2026-04-16 14:10 49.25702 14.24263 24985 ft 442 kts 345°
2026-04-16 14:10 49.28658 14.23363 24988 ft 441 kts 345°
2026-04-16 14:10 49.31727 14.22427 24986 ft 441 kts 345°
2026-04-16 14:10 49.34738 14.21507 24985 ft 441 kts 345°
2026-04-16 14:11 49.37750 14.20585 24986 ft 441 kts 345°
2026-04-16 14:11 49.40761 14.19664 24985 ft 442 kts 345°
2026-04-16 14:11 49.43734 14.18757 24603 ft 428 kts 345°
2026-04-16 14:11 49.46605 14.17880 24054 ft 414 kts 345°
2026-04-16 14:12 49.49392 14.17019 23476 ft 404 kts 345°
2026-04-16 14:12 49.52136 14.16171 22942 ft 400 kts 345°
2026-04-16 14:12 49.54863 14.15330 22412 ft 398 kts 345°
2026-04-16 14:12 49.57560 14.14499 22120 ft 397 kts 345°
2026-04-16 14:13 49.60277 14.13658 21606 ft 396 kts 345°
2026-04-16 14:13 49.62946 14.12928 21082 ft 394 kts 349°
2026-04-16 14:13 49.65688 14.12828 20570 ft 395 kts 359°
2026-04-16 14:13 49.68365 14.13880 20008 ft 404 kts 21°
2026-04-16 14:14 49.70675 14.16374 19474 ft 409 kts 41°
2026-04-16 14:14 49.72328 14.19955 18971 ft 411 kts 59°
2026-04-16 14:14 49.73480 14.23991 18521 ft 410 kts 66°
2026-04-16 14:14 49.74429 14.28140 18007 ft 407 kts 69°
2026-04-16 14:15 49.75319 14.32277 17498 ft 402 kts 68°
2026-04-16 14:15 49.76300 14.36313 17011 ft 398 kts 66°
2026-04-16 14:15 49.77288 14.40221 16543 ft 394 kts 66°
2026-04-16 14:15 49.78233 14.44198 16076 ft 391 kts 68°
2026-04-16 14:16 49.79142 14.48137 15621 ft 387 kts 68°
2026-04-16 14:16 49.80046 14.52049 15179 ft 384 kts 71°
2026-04-16 14:16 49.80342 14.56154 14680 ft 386 kts 92°
2026-04-16 14:16 49.79918 14.60233 14239 ft 382 kts 101°
2026-04-16 14:17 49.79288 14.64210 13800 ft 379 kts 104°
2026-04-16 14:17 49.78602 14.68131 13323 ft 376 kts 104°
2026-04-16 14:17 49.77711 14.71831 12847 ft 358 kts 117°
2026-04-16 14:17 49.76425 14.75020 12384 ft 341 kts 124°
2026-04-16 14:18 49.75076 14.77945 11951 ft 327 kts 126°
2026-04-16 14:18 49.73754 14.80734 11527 ft 316 kts 127°
2026-04-16 14:18 49.72465 14.83436 11091 ft 307 kts 127°
2026-04-16 14:18 49.71073 14.85869 10626 ft 300 kts 144°
2026-04-16 14:19 49.69203 14.87125 10137 ft 292 kts 173°
2026-04-16 14:19 49.67253 14.86900 9642 ft 283 kts 200°
2026-04-16 14:19 49.65576 14.85428 9171 ft 276 kts 225°
2026-04-16 14:19 49.64549 14.82990 8683 ft 271 kts 252°
2026-04-16 14:20 49.64381 14.80156 8204 ft 267 kts 280°
2026-04-16 14:20 49.65154 14.77589 7724 ft 265 kts 310°
2026-04-16 14:20 49.66661 14.75982 7260 ft 266 kts 338°
2026-04-16 14:20 49.68495 14.75631 6826 ft 267 kts 358°
2026-04-16 14:21 49.70346 14.75693 6420 ft 266 kts 359°
2026-04-16 14:21 49.72197 14.75753 6011 ft 265 kts 358°
2026-04-16 14:21 49.74042 14.75777 5612 ft 264 kts 358°
2026-04-16 14:21 49.75853 14.75800 5247 ft 263 kts 358°
2026-04-16 14:22 49.77679 14.75822 4886 ft 261 kts 358°
2026-04-16 14:22 49.79496 14.75852 4506 ft 260 kts 358°
2026-04-16 14:22 49.81298 14.75886 4199 ft 257 kts 358°
2026-04-16 14:22 49.83058 14.75865 4181 ft 251 kts 354°
2026-04-16 14:23 49.84771 14.75251 4175 ft 256 kts 338°
2026-04-16 14:23 49.86320 14.73978 4174 ft 251 kts 323°
2026-04-16 14:23 49.87600 14.72136 4181 ft 252 kts 309°
2026-04-16 14:23 49.88659 14.69951 4186 ft 254 kts 307°
2026-04-16 14:24 49.89736 14.67798 4187 ft 252 kts 308°
2026-04-16 14:24 49.90784 14.65666 4183 ft 251 kts 307°
2026-04-16 14:24 49.91851 14.63477 4181 ft 256 kts 307°
2026-04-16 14:24 49.92814 14.61525 4180 ft 254 kts 307°
2026-04-16 14:25 49.93886 14.59343 4187 ft 253 kts 307°
2026-04-16 14:25 49.94934 14.57203 4186 ft 240 kts 307°
2026-04-16 14:25 49.95883 14.55260 4179 ft 213 kts 307°
2026-04-16 14:25 49.96751 14.53469 4175 ft 203 kts 306°
2026-04-16 14:26 49.97588 14.51720 4172 ft 201 kts 306°
2026-04-16 14:26 49.98425 14.49987 4177 ft 201 kts 307°
2026-04-16 14:26 49.99277 14.48242 4037 ft 202 kts 308°
2026-04-16 14:26 50.00133 14.46540 3995 ft 198 kts 307°
2026-04-16 14:27 50.00952 14.44828 3911 ft 203 kts 306°
2026-04-16 14:27 50.01807 14.43073 3653 ft 204 kts 307°
2026-04-16 14:27 50.02640 14.41375 3396 ft 184 kts 307°
2026-04-16 14:27 50.03344 14.39895 3152 ft 161 kts 307°
2026-04-16 14:28 50.04025 14.38533 2932 ft 160 kts 308°
2026-04-16 14:28 50.04683 14.37166 2733 ft 157 kts 306°
2026-04-16 14:28 50.05333 14.35791 2524 ft 158 kts 308°
2026-04-16 14:28 50.05967 14.34532 2333 ft 138 kts 308°
2026-04-16 14:29 50.06541 14.33323 2097 ft 137 kts 307°
2026-04-16 14:29 50.07125 14.32174 1844 ft 134 kts 311°
2026-04-16 14:29 50.07687 14.31030 1627 ft 131 kts 307°
2026-04-16 14:29 50.08215 14.29889 1464 ft 130 kts 309°
2026-04-16 14:30 50.08793 14.28688 1329 ft 142 kts 308°
2026-04-16 14:30 50.09334 14.27564 1222 ft 120 kts 310°
2026-04-16 14:30 50.09763 14.26687 1201 ft 77 kts 310°
2026-04-16 14:30 50.10026 14.26138 1186 ft 57 kts 306°
2026-04-16 14:31 50.10222 14.25755 1182 ft 33 kts 320°
2026-04-16 14:31 50.10366 14.25660 1177 ft 15 kts 353°
2026-04-16 14:31 50.10468 14.25676 1176 ft 14 kts 29°
2026-04-16 14:31 50.10500 14.25855 1171 ft 21 kts 79°
2026-04-16 14:32 50.10484 14.26012 1170 ft 14 kts 129°
2026-04-16 14:32 50.10413 14.26155 1170 ft 18 kts 126°
2026-04-16 14:32 50.10329 14.26328 1171 ft 22 kts 126°
2026-04-16 14:32 50.10232 14.26530 1169 ft 25 kts 127°
2026-04-16 14:33 50.10123 14.26756 1173 ft 27 kts 127°
2026-04-16 14:33 50.10014 14.26980 1189 ft 25 kts 127°
2026-04-16 14:33 50.09929 14.27162 1195 ft 16 kts 114°
2026-04-16 14:33 50.09942 14.27367 1190 ft 23 kts 83°
2026-04-16 14:34 50.09967 14.27641 1183 ft 24 kts 81°
2026-04-16 14:34 50.09988 14.27855 1177 ft 22 kts 81°
2026-04-16 14:34 50.10005 14.28097 1181 ft 19 kts 99°
2026-04-16 14:34 50.09956 14.28258 1191 ft 16 kts 118°
2026-04-16 14:35 50.09914 14.28377 1206 ft 4 kts 118°
2026-04-16 14:35 50.09891 14.28426 1207 ft 8 kts 143°
2026-04-16 14:35 50.09833 14.28449 1207 ft 10 kts 170°
2026-04-16 14:35 50.09801 14.28527 1207 ft 6 kts 91°
2026-04-16 14:36 50.09767 14.28548 1207 ft 2 kts 169°
2026-04-16 14:36 50.09766 14.28549 1207 ft 0 kts 169°